• In Romania
  • List of Countries
  • For 7 days
  • Water Temperature
  • Satellite Maps
  • Weather Map
  • Weather Widgets
  • user-avatar
    Login

    Hourly Weather Modlecin

    Today, 22 October, Monday

    Time Temperature Precipitation Wind Pressure Humidity
    00:00 +6°C° 0 mm 1 mps 748 mmHg 81%
    01:00 +6°C° 0 mm 1 mps 748 mmHg 81%
    02:00 +6°C° 0 mm 1 mps 748 mmHg 82%
    03:00 +6°C° 0 mm 1 mps 747 mmHg 82%
    04:00 +6°C° 0 mm 1 mps 747 mmHg 83%
    05:00 +6°C° 0 mm 1 mps 747 mmHg 83%
    06:00 +6°C° 0 mm 1 mps 747 mmHg 84%
    07:00 +6°C° 0 mm 1 mps 747 mmHg 84%
    08:00 +8°C° 0 mm 1 mps 747 mmHg 76%
    09:00 +9°C° 0 mm 2 mps 747 mmHg 67%
    10:00 +12°C° 0 mm 2 mps 747 mmHg 59%
    11:00 +13°C° 0 mm 2 mps 747 mmHg 56%
    12:00 +13°C° 0 mm 3 mps 746 mmHg 52%
    13:00 +14°C° 0 mm 3 mps 746 mmHg 49%
    14:00 +13°C° 0 mm 3 mps 746 mmHg 53%
    15:00 +13°C° 0 mm 3 mps 746 mmHg 57%
    16:00 +12°C° 0 mm 3 mps 746 mmHg 61%
    17:00 +11°C° 0.4 mm 3 mps 746 mmHg 69%
    18:00 +10°C° 0.4 mm 4 mps 746 mmHg 77%
    19:00 +8°C° 0.4 mm 4 mps 747 mmHg 86%
    20:00 +8°C° 0.1 mm 4 mps 747 mmHg 85%
    21:00 +7°C° 0.1 mm 4 mps 747 mmHg 85%
    22:00 +6°C° 0.1 mm 4 mps 747 mmHg 84%
    23:00 +5°C° 0 mm 3 mps 747 mmHg 86%

    Tomorrow, 23 October, Tuesday

    Time Temperature Precipitation Wind Pressure Humidity
    00:00 +5°C° 0 mm 3 mps 747 mmHg 88%
    01:00 +4°C° 0 mm 3 mps 747 mmHg 89%
    02:00 +4°C° 0 mm 3 mps 747 mmHg 89%
    03:00 +4°C° 0 mm 3 mps 747 mmHg 88%
    04:00 +3°C° 0 mm 3 mps 747 mmHg 87%
    05:00 +3°C° 0 mm 3 mps 746 mmHg 86%
    06:00 +4°C° 0 mm 4 mps 746 mmHg 85%
    07:00 +4°C° 0 mm 4 mps 745 mmHg 83%
    08:00 +5°C° 0 mm 5 mps 745 mmHg 79%
    09:00 +5°C° 0 mm 6 mps 744 mmHg 74%
    10:00 +6°C° 0 mm 7 mps 743 mmHg 69%
    11:00 +6°C° 0.2 mm 8 mps 742 mmHg 69%
    12:00 +6°C° 0.2 mm 9 mps 741 mmHg 68%
    13:00 +7°C° 0.2 mm 9 mps 740 mmHg 68%
    14:00 +6°C° 0.4 mm 10 mps 739 mmHg 71%
    15:00 +6°C° 0.4 mm 10 mps 738 mmHg 74%
    16:00 +6°C° 0.4 mm 10 mps 737 mmHg 76%
    17:00 +7°C° 0.2 mm 10 mps 736 mmHg 77%
    18:00 +8°C° 0.2 mm 10 mps 736 mmHg 77%
    19:00 +8°C° 0.2 mm 11 mps 735 mmHg 78%
    20:00 +9°C° 0.3 mm 11 mps 734 mmHg 79%
    21:00 +9°C° 0.3 mm 11 mps 734 mmHg 79%
    22:00 +9°C° 0.3 mm 11 mps 733 mmHg 80%
    23:00 +9°C° 0.6 mm 11 mps 732 mmHg 80%

    Day after tomorrow, 24 October, Wednesday

    Time Temperature Precipitation Wind Pressure Humidity
    00:00 +9°C° 0.6 mm 11 mps 732 mmHg 80%
    01:00 +11°C° 0.6 mm 11 mps 731 mmHg 80%
    02:00 +9°C° 1.1 mm 12 mps 731 mmHg 78%
    03:00 +9°C° 1.1 mm 12 mps 731 mmHg 77%
    04:00 +9°C° 1.1 mm 12 mps 731 mmHg 76%
    05:00 +7°C° 0.3 mm 11 mps 732 mmHg 74%
    06:00 +6°C° 0.3 mm 10 mps 733 mmHg 72%
    07:00 +5°C° 0.3 mm 10 mps 734 mmHg 71%
    08:00 +5°C° 0.1 mm 10 mps 735 mmHg 68%
    09:00 +5°C° 0.1 mm 10 mps 735 mmHg 65%
    10:00 +5°C° 0.1 mm 10 mps 736 mmHg 62%
    11:00 +6°C° 0 mm 10 mps 737 mmHg 56%
    12:00 +6°C° 0 mm 10 mps 737 mmHg 51%
    13:00 +7°C° 0 mm 10 mps 738 mmHg 46%
    14:00 +7°C° 0 mm 9 mps 738 mmHg 48%
    15:00 +6°C° 0 mm 8 mps 739 mmHg 49%
    16:00 +6°C° 0 mm 7 mps 739 mmHg 51%
    17:00 +5°C° 0 mm 6 mps 740 mmHg 54%
    18:00 +5°C° 0 mm 6 mps 740 mmHg 57%
    19:00 +5°C° 0 mm 5 mps 741 mmHg 60%
    20:00 +5°C° 0 mm 5 mps 741 mmHg 62%
    21:00 +3°C° 0 mm 5 mps 741 mmHg 65%
    22:00 +3°C° 0 mm 4 mps 742 mmHg 68%
    23:00 +3°C° 0 mm 4 mps 742 mmHg 71%

    25 October, Thursday

    Time Temperature Precipitation Wind Pressure Humidity
    00:00 +3°C° 0 mm 4 mps 742 mmHg 75%
    01:00 +3°C° 0 mm 4 mps 742 mmHg 79%
    02:00 +3°C° 0 mm 4 mps 742 mmHg 80%
    03:00 +3°C° 0 mm 4 mps 741 mmHg 81%
    04:00 +4°C° 0 mm 4 mps 741 mmHg 81%
    05:00 +4°C° 0 mm 4 mps 741 mmHg 82%
    06:00 +5°C° 0 mm 4 mps 741 mmHg 83%
    07:00 +5°C° 0 mm 4 mps 741 mmHg 84%
    08:00 +6°C° 0.1 mm 5 mps 740 mmHg 83%
    09:00 +8°C° 0.1 mm 6 mps 740 mmHg 81%
    10:00 +9°C° 0.1 mm 7 mps 740 mmHg 80%
    11:00 +10°C° 0.1 mm 7 mps 740 mmHg 78%
    12:00 +10°C° 0.1 mm 7 mps 739 mmHg 75%
    13:00 +11°C° 0.1 mm 7 mps 739 mmHg 73%
    14:00 +11°C° 0.1 mm 7 mps 739 mmHg 74%
    15:00 +10°C° 0.1 mm 6 mps 738 mmHg 74%
    16:00 +10°C° 0.1 mm 6 mps 738 mmHg 75%
    17:00 +9°C° 0 mm 5 mps 738 mmHg 78%
    18:00 +9°C° 0 mm 5 mps 738 mmHg 81%
    19:00 +8°C° 0 mm 4 mps 738 mmHg 84%
    20:00 +7°C° 0 mm 4 mps 738 mmHg 85%
    21:00 +7°C° 0 mm 4 mps 738 mmHg 87%
    22:00 +8°C° 0 mm 3 mps 738 mmHg 88%
    23:00 +8°C° 0 mm 3 mps 738 mmHg 89%

    26 October, Friday

    Time Temperature Precipitation Wind Pressure Humidity
    00:00 +7°C° 0 mm 3 mps 738 mmHg 91%
    01:00 +7°C° 0 mm 3 mps 737 mmHg 92%
    02:00 +7°C° 0 mm 2 mps 737 mmHg 92%
    03:00 +7°C° 0 mm 2 mps 737 mmHg 92%
    04:00 +7°C° 0 mm 2 mps 736 mmHg 92%
    05:00 +7°C° 0 mm 3 mps 736 mmHg 92%
    06:00 +7°C° 0 mm 3 mps 736 mmHg 92%
    07:00 +7°C° 0 mm 3 mps 735 mmHg 91%
    08:00 +8°C° 0 mm 4 mps 735 mmHg 85%
    09:00 +10°C° 0 mm 4 mps 735 mmHg 78%
    10:00 +10°C° 0 mm 5 mps 735 mmHg 72%
    11:00 +12°C° 0 mm 5 mps 734 mmHg 69%
    12:00 +13°C° 0 mm 5 mps 734 mmHg 66%
    13:00 +13°C° 0 mm 6 mps 733 mmHg 63%
    14:00 +13°C° 0 mm 5 mps 733 mmHg 65%
    15:00 +12°C° 0 mm 4 mps 733 mmHg 67%
    16:00 +12°C° 0 mm 3 mps 733 mmHg 70%
    17:00 +11°C° 0 mm 3 mps 733 mmHg 72%
    18:00 +10°C° 0 mm 3 mps 733 mmHg 75%
    19:00 +10°C° 0 mm 2 mps 733 mmHg 78%
    20:00 +9°C° 0 mm 2 mps 733 mmHg 80%
    21:00 +9°C° 0 mm 2 mps 733 mmHg 82%
    22:00 +9°C° 0 mm 2 mps 733 mmHg 84%
    23:00 +9°C° 0 mm 1 mps 732 mmHg 86%

    27 October, Saturday

    Time Temperature Precipitation Wind Pressure Humidity
    00:00 +9°C° 0 mm 1 mps 732 mmHg 88%
    01:00 +8°C° 0 mm 1 mps 732 mmHg 90%
    02:00 +9°C° 0 mm 1 mps 731 mmHg 90%
    03:00 +9°C° 0 mm 1 mps 731 mmHg 90%
    04:00 +9°C° 0 mm 1 mps 730 mmHg 90%
    05:00 +9°C° 0.2 mm 1 mps 730 mmHg 90%
    06:00 +9°C° 0.2 mm 1 mps 729 mmHg 91%
    07:00 +9°C° 0.2 mm 1 mps 729 mmHg 91%
    08:00 +9°C° 0.3 mm 2 mps 728 mmHg 89%
    09:00 +9°C° 0.3 mm 2 mps 728 mmHg 86%
    10:00 +10°C° 0.3 mm 2 mps 728 mmHg 84%
    11:00 +10°C° 0.7 mm 2 mps 727 mmHg 86%
    12:00 +10°C° 0.7 mm 2 mps 727 mmHg 87%
    13:00 +10°C° 0.7 mm 2 mps 727 mmHg 89%
    14:00 +9°C° 0.9 mm 3 mps 727 mmHg 90%
    15:00 +7°C° 0.9 mm 4 mps 727 mmHg 91%
    16:00 +6°C° 0.9 mm 4 mps 728 mmHg 92%
    17:00 +6°C° 0.3 mm 4 mps 728 mmHg 91%
    18:00 +6°C° 0.3 mm 4 mps 729 mmHg 90%
    19:00 +5°C° 0.3 mm 4 mps 729 mmHg 90%
    20:00 +5°C° 0.3 mm 4 mps 730 mmHg 89%
    21:00 +5°C° 0.3 mm 3 mps 730 mmHg 89%
    22:00 +5°C° 0.3 mm 3 mps 730 mmHg 89%
    23:00 +4°C° 0.5 mm 3 mps 730 mmHg 89%

    28 October, Sunday

    Time Temperature Precipitation Wind Pressure Humidity
    00:00 +4°C° 0.5 mm 3 mps 731 mmHg 90%
    01:00 +5°C° 0.5 mm 2 mps 731 mmHg 90%
    02:00 +5°C° 0.5 mm 2 mps 731 mmHg 90%
    03:00 +4°C° 0.5 mm 3 mps 731 mmHg 91%
    04:00 +4°C° 0.5 mm 3 mps 731 mmHg 91%
    05:00 +4°C° 0.6 mm 3 mps 731 mmHg 91%
    06:00 +4°C° 0.6 mm 3 mps 731 mmHg 91%
    07:00 +4°C° 0.6 mm 3 mps 731 mmHg 91%
    08:00 +4°C° 0.2 mm 3 mps 731 mmHg 90%
    09:00 +4°C° 0.2 mm 3 mps 731 mmHg 88%
    10:00 +4°C° 0.2 mm 3 mps 731 mmHg 87%
    11:00 +4°C° 0.2 mm 3 mps 731 mmHg 87%
    12:00 +4°C° 0.2 mm 3 mps 731 mmHg 87%
    13:00 +4°C° 0.2 mm 3 mps 731 mmHg 88%
    14:00 +4°C° 0.4 mm 3 mps 731 mmHg 89%
    15:00 +4°C° 0.4 mm 3 mps 731 mmHg 90%
    16:00 +4°C° 0.4 mm 3 mps 731 mmHg 91%
    17:00 +5°C° 0.1 mm 2 mps 731 mmHg 92%
    18:00 +6°C° 0.1 mm 1 mps 731 mmHg 93%
    19:00 +6°C° 0.1 mm 1 mps 732 mmHg 93%
    20:00 +6°C° 0 mm 1 mps 732 mmHg 94%
    21:00 +6°C° 0 mm 1 mps 732 mmHg 95%
    22:00 +6°C° 0 mm 1 mps 733 mmHg 95%
    23:00 +5°C° 0 mm 1 mps 733 mmHg 95%
    Show more